Theta_e
322 325 322 321 322 321 322 325 326 326 324 328 327 327 325 324 324 323 322 318 315 312 315 318 323 329 328 328 329 329 329 328 328 324 324 324 324 324 323 323 323 323 323 322
323 323 320 317 319 323 324 326 325 323 325 328 326 327 324 323 324 324 324 322 318 315 311 311 319 326 329 329 328 328 329 328 329 327 325 323 323 322 322 321 322 323 323 322
323 320 318 322 321 322 322 325 326 326 324 325 327 327 324 323 323 323 323 323 323 319 318 316 311 323 326 329 328 329 329 329 329 328 326 325 325 324 324 324 324 326 326 325
321 319 320 320 322 322 324 319 320 323 325 327 324 327 321 320 322 323 323 323 323 322 322 320 315 314 322 326 327 328 329 329 329 328 327 326 327 326 326 325 325 326 327 327
319 320 321 322 323 322 324 321 322 323 325 325 324 328 321 321 323 322 322 323 323 322 321 321 319 315 317 320 323 327 327 328 328 328 328 327 327 327 327 326 326 325 326 327
314 316 319 319 319 320 321 323 323 324 326 328 324 324 322 320 321 320 320 321 320 321 321 319 319 316 313 316 320 324 326 326 327 328 328 327 327 327 327 327 326 326 325 325
317 317 319 318 322 320 322 325 326 326 327 327 321 325 325 319 318 317 319 318 317 318 320 320 317 314 314 311 317 322 325 326 326 327 327 328 328 328 328 327 326 326 325 326
322 321 316 317 318 319 323 324 326 328 325 321 317 325 321 317 317 318 316 315 315 312 311 312 313 315 315 312 313 320 323 325 325 326 326 327 327 327 327 327 327 326 326 325
316 316 316 316 317 316 319 324 321 325 309 318 319 316 314 313 314 312 313 312 311 312 314 311 310 309 311 311 311 316 321 323 324 325 325 326 326 327 326 326 326 326 325 325
318 321 316 316 318 318 319 318 324 323 325 324 319 318 320 317 316 314 313 312 311 309 308 308 308 307 308 310 310 312 317 321 323 324 325 325 325 326 326 326 325 325 325 325
317 318 319 318 320 320 322 323 323 321 322 325 318 317 309 314 313 313 309 307 305 303 303 303 304 305 307 307 307 310 315 319 321 323 324 324 325 325 325 325 325 325 325 326
315 313 319 319 315 316 318 319 321 325 322 319 314 320 311 307 308 307 306 305 304 302 300 299 299 300 301 303 304 307 313 317 320 322 323 324 324 325 325 325 325 325 325 326
316 315 318 319 317 316 320 320 320 320 317 318 319 319 308 310 307 304 303 304 304 301 300 300 299 300 300 301 302 304 309 314 319 321 323 323 324 324 324 324 324 325 325 325
315 314 318 318 318 318 320 319 320 320 323 321 319 318 316 314 314 313 313 309 304 303 301 300 299 300 300 301 302 302 304 310 315 319 322 323 323 324 323 324 324 324 324 324
312 310 315 315 312 314 315 319 319 322 322 322 319 319 318 316 314 314 312 309 305 305 307 308 300 300 299 301 302 303 304 305 313 317 319 321 322 323 324 324 324 325 325 325
312 315 313 314 313 315 316 316 316 318 318 320 321 321 318 317 315 314 315 315 314 306 305 306 301 299 298 300 302 303 304 304 306 315 317 319 320 321 322 322 323 323 323 322
313 312 312 313 310 313 312 314 315 315 316 317 319 317 316 315 315 315 314 314 314 314 311 305 302 299 299 301 303 303 304 305 305 305 309 313 315 316 317 317 316 316 317 318
310 311 310 307 303 308 307 308 311 313 313 314 315 316 315 315 314 313 313 312 312 312 307 304 302 300 301 302 303 303 304 305 305 305 305 305 306 306 306 306 307 307 307 307
306 306 308 305 305 301 306 306 310 311 313 311 312 313 313 312 311 314 313 312 312 311 311 307 306 305 302 302 304 304 304 305 306 306 306 307 307 307 307 308 309 309 310 310
305 304 300 304 299 298 300 304 306 308 312 304 306 310 310 309 312 312 310 309 309 308 307 304 306 303 300 300 301 302 302 303 305 306 306 306 306 306 306 306 306 307 307 307
302 306 303 299 293 297 299 300 306 308 305 299 300 300 299 304 305 301 300 302 304 304 303 305 301 300 298 298 299 299 300 301 301 302 303 303 304 306 306 305 304 305 305 305
301 299 296 296 298 301 298 303 309 299 297 296 295 296 295 296 297 297 297 297 297 298 297 297 296 295 293 294 295 297 298 298 299 299 299 301 302 304 303 303 303 303 304 304
298 299 297 300 301 298 300 300 291 291 293 292 292 291 290 292 294 293 294 294 292 290 290 290 290 289 289 291 292 294 292 293 294 295 294 296 297 298 300 301 302 302 302 302
300 299 301 302 301 299 299 290 288 288 289 289 288 287 288 289 289 290 291 290 288 286 286 286 288 286 285 286 289 289 290 290 291 293 293 294 295 296 298 299 300 301 300 300
299 300 299 300 301 298 293 287 284 286 286 286 286 286 287 287 288 288 288 286 286 285 283 283 284 283 283 285 286 288 290 291 291 291 292 293 295 295 295 296 296 297 297 298
295 299 302 301 289 292 292 283 282 282 283 283 283 284 285 285 286 285 286 284 283 282 281 281 281 281 281 283 285 287 289 291 292 291 292 293 292 292 291 290 290 291 294 296
Wind_Speed
5 9 14 15 13 7 5 6 11 3 6 6 11 13 13 16 11 14 15 14 15 15 21 20 26 31 33 34 36 38 39 41 40 38 37 34 35 39 38 37 36 35 34 32
5 17 7 7 10 8 11 14 15 5 4 5 7 18 12 14 17 15 19 18 17 17 13 15 25 28 32 38 40 37 41 40 43 42 42 32 34 36 41 40 39 38 37 35
13 3 12 8 10 14 14 16 9 6 2 4 7 21 15 15 22 19 21 22 19 20 22 16 19 29 35 34 41 43 44 43 45 44 36 34 24 26 30 37 41 42 39 37
10 9 7 16 17 13 19 14 18 15 6 11 5 16 6 6 14 12 17 18 21 22 23 19 20 28 34 38 42 39 41 44 46 44 37 39 36 31 33 32 37 41 42 41
6 10 14 12 10 12 6 5 11 12 12 10 14 8 6 11 16 16 13 20 20 22 22 23 21 30 36 39 38 42 42 41 42 43 43 41 37 35 29 30 32 35 39 43
9 1 5 7 11 12 3 5 9 8 7 10 25 14 21 14 16 13 12 18 16 18 21 21 28 26 27 35 38 36 37 41 42 45 47 41 40 36 30 32 32 31 31 35
9 8 1 4 3 7 13 7 4 5 5 9 3 10 22 8 10 9 14 14 13 12 15 15 16 16 27 29 35 37 39 40 44 46 44 47 44 42 40 36 35 32 32 30
7 7 20 7 11 5 7 8 4 4 4 3 2 10 7 8 13 15 9 16 13 7 8 9 12 18 25 28 34 35 36 39 39 43 47 47 46 39 39 36 36 40 37 38
7 6 3 6 6 12 6 11 11 5 3 2 5 8 7 9 13 8 13 12 14 8 13 12 11 19 22 24 31 36 36 39 38 44 43 40 41 39 38 40 42 38 38 39
3 4 5 7 5 7 5 6 5 6 8 6 6 6 8 7 13 10 10 7 9 8 9 8 8 16 23 30 33 33 36 37 39 40 39 39 42 44 42 37 39 40 37 39
6 3 2 11 13 18 7 4 4 3 3 5 3 6 8 13 9 8 8 6 8 10 11 8 8 18 23 25 23 30 32 31 33 38 37 35 36 38 37 36 39 40 38 38
11 2 3 10 1 7 13 9 9 3 4 4 2 12 2 7 8 4 7 8 6 7 8 7 8 13 17 16 18 24 27 30 34 36 35 38 36 35 35 37 35 37 38 37
11 5 3 2 4 3 7 14 15 13 2 9 3 11 4 1 5 8 7 7 8 9 8 8 6 5 9 10 14 17 22 29 31 33 34 34 34 34 33 32 32 37 36 35
15 4 4 5 2 3 8 12 17 13 5 16 16 29 20 17 14 12 16 8 8 8 9 6 7 7 10 10 14 17 18 23 26 28 32 33 32 33 31 32 31 29 31 31
5 6 7 6 4 4 1 10 14 14 20 10 29 19 24 18 9 13 12 9 8 8 9 13 7 6 8 13 15 14 17 18 22 26 30 32 31 30 29 28 28 29 29 29
3 3 3 4 4 9 6 11 11 22 21 19 25 29 33 23 19 14 18 21 17 10 9 11 10 8 8 12 11 12 12 11 17 22 25 24 24 24 26 26 26 26 26 27
7 6 3 2 3 2 6 19 22 17 19 20 19 34 33 12 14 14 15 16 19 17 13 11 10 8 11 9 8 11 12 10 12 15 17 18 20 21 21 21 22 24 26 27
6 6 3 2 2 2 5 2 10 18 21 21 23 29 26 16 15 17 14 9 18 20 13 11 8 7 13 7 4 7 9 11 13 13 13 14 16 17 17 17 18 18 19 20
3 4 3 4 4 6 9 5 7 8 13 17 22 26 28 16 6 24 15 16 21 22 19 13 17 17 10 9 7 8 8 10 12 13 14 15 16 16 16 17 16 16 16 17
2 3 4 3 5 8 5 6 3 5 6 5 9 17 12 7 6 14 12 9 11 13 18 14 22 15 12 11 9 10 11 10 12 11 11 12 14 16 16 15 15 14 13 12
3 1 7 4 4 8 7 7 3 3 3 4 8 8 8 5 5 17 19 18 15 9 11 17 13 13 10 9 12 13 12 12 10 10 10 10 12 12 12 12 12 11 12 11
8 7 4 3 2 10 5 2 7 2 5 4 3 5 10 12 14 12 17 15 16 16 12 13 6 1 2 3 6 10 13 12 11 10 8 8 9 10 11 12 12 13 14 14
3 7 6 10 7 5 2 2 4 2 2 4 7 7 9 12 10 16 17 15 12 11 12 14 7 4 8 7 7 3 4 9 11 11 9 8 8 9 12 14 15 17 15 14
5 4 3 3 5 8 5 4 4 2 1 4 4 9 7 9 13 15 13 12 9 12 14 17 10 8 8 9 7 4 3 3 5 11 11 12 12 13 12 11 11 12 12 11
4 7 6 5 3 4 3 6 7 6 4 7 8 8 9 10 13 11 12 12 10 10 14 16 12 7 7 6 5 4 2 2 4 7 13 15 17 18 19 15 10 9 7 8
5 6 5 5 2 1 4 5 8 7 10 10 12 14 13 10 13 11 11 9 11 9 10 11 11 9 9 8 6 4 2 3 7 10 13 17 21 22 23 25 24 17 11 10
Wind_Direction
207 200 217 214 219 247 281 238 238 219 221 214 240 251 244 265 265 256 255 250 252 236 241 235 242 234 229 227 225 226 223 224 222 215 214 218 223 228 231 231 233 232 232 232
187 231 213 201 216 232 228 249 262 263 210 202 279 268 246 260 258 248 261 257 249 251 236 222 224 224 221 223 223 219 221 218 222 219 217 214 219 229 232 232 233 234 234 235
209 158 198 213 207 219 236 240 250 262 321 250 293 282 266 250 252 250 246 247 249 238 245 231 209 210 219 213 220 218 219 218 222 218 213 214 221 226 228 231 235 234 234 235
236 226 209 212 222 199 234 222 242 258 272 264 138 284 250 271 270 236 240 245 244 241 242 237 218 210 210 215 223 219 216 216 221 215 207 207 211 213 219 222 230 234 235 235
208 169 197 213 214 198 236 161 223 229 239 263 244 266 295 217 250 260 239 249 240 240 241 242 237 221 209 218 217 220 215 213 213 210 210 209 212 220 219 219 223 230 238 237
215 285 197 222 201 215 108 235 273 264 261 227 243 219 268 241 246 256 253 251 250 239 236 238 239 232 222 221 219 216 211 214 210 213 213 210 212 214 212 214 215 217 222 232
210 208 180 169 168 193 191 197 241 232 203 250 210 207 245 297 283 235 249 261 251 248 244 240 231 219 225 210 209 209 209 210 211 210 209 212 215 215 216 214 212 213 218 221
197 196 216 181 202 166 201 207 219 208 213 285 38 227 260 239 251 260 269 259 277 260 247 243 247 234 230 219 212 208 206 212 208 207 211 214 216 215 216 216 216 221 220 225
183 241 73 199 161 166 181 220 221 271 161 245 216 284 270 246 270 284 254 258 268 274 262 242 241 238 239 235 222 211 207 212 208 211 212 212 212 212 214 216 222 223 225 229
190 279 182 184 130 211 184 134 165 202 247 242 250 254 237 298 278 280 298 298 300 296 291 286 269 256 245 239 236 222 215 212 211 211 210 212 212 212 215 214 218 220 224 229
179 245 200 142 199 190 171 191 192 184 188 224 288 252 207 224 247 246 286 310 298 300 305 319 288 278 264 248 242 233 220 215 210 211 209 210 214 214 214 214 218 224 225 231
173 149 215 202 12 200 211 188 205 233 202 225 208 264 354 240 233 264 292 304 307 293 306 310 306 303 279 253 247 236 228 219 218 213 208 212 215 215 213 216 219 223 228 233
163 214 210 153 304 331 210 212 214 222 301 233 245 266 345 231 307 288 279 295 307 306 326 322 314 285 276 260 258 245 232 229 225 218 212 211 212 213 213 215 217 228 231 234
164 147 211 200 163 136 213 207 220 216 226 252 244 263 259 270 295 300 293 274 289 309 308 285 296 294 295 277 258 257 246 230 225 219 215 211 210 216 215 222 221 220 226 225
166 175 192 201 167 102 333 224 219 221 237 232 257 259 268 275 272 280 291 306 290 297 313 310 285 273 265 266 256 247 244 232 221 218 216 217 218 220 222 223 225 223 226 228
165 176 155 208 255 212 224 234 251 231 239 250 261 274 262 272 281 283 284 284 281 274 275 287 286 288 279 274 273 262 250 235 217 216 217 217 217 216 217 220 222 222 220 225
159 164 138 228 194 152 278 237 232 242 242 243 249 254 271 284 283 265 264 268 281 279 279 271 283 293 286 263 254 242 239 225 210 211 213 213 213 215 217 218 220 224 225 224
133 142 142 168 64 247 243 52 217 216 233 227 245 259 269 267 270 284 271 277 277 283 261 252 258 276 285 261 229 239 227 216 212 204 201 198 200 204 204 206 210 215 219 222
136 126 137 158 196 302 294 195 166 176 246 233 244 254 260 280 267 278 283 259 260 266 269 257 256 265 251 235 203 203 199 201 204 205 201 199 200 202 201 202 204 208 209 208
56 92 123 163 175 223 238 295 169 112 275 5 300 261 287 305 274 276 316 300 273 263 261 253 260 258 237 213 209 197 195 203 214 214 213 209 209 207 201 198 198 201 205 211
137 187 198 192 230 283 249 251 278 146 245 24 11 10 357 329 333 306 324 325 313 288 287 282 257 235 225 210 201 201 192 200 210 210 212 211 204 207 203 196 193 180 170 172
167 161 186 150 192 266 222 18 202 75 320 341 4 355 321 305 305 309 315 326 332 332 340 337 306 261 245 250 235 217 189 190 188 196 198 201 194 188 190 187 173 178 185 184
212 183 181 187 210 214 97 117 109 99 271 332 323 338 320 316 327 322 318 327 342 345 346 353 360 34 7 4 355 275 209 190 181 177 172 164 161 165 171 173 171 177 182 181
237 178 202 118 211 224 169 116 102 134 333 318 305 310 317 316 323 320 324 328 348 356 352 349 9 32 26 19 44 67 341 293 198 165 164 157 153 142 142 150 164 180 174 174
195 145 177 266 284 288 123 72 22 10 350 347 336 321 315 323 321 322 319 324 336 353 2 359 2 21 11 11 37 54 50 184 217 180 159 148 141 135 126 120 130 148 165 186
191 184 187 222 61 342 102 19 23 9 356 350 340 333 329 322 319 320 312 319 327 344 16 13 2 7 2 354 359 19 65 173 180 171 157 145 133 126 121 112 93 93 111 140